Frederick, OK

7:41 PM CDT on October 17, 2017 (GMT -0500)
Frederick Municipal

Weather History for KFDR - January, 2014

Change the Weather History Date:

Wednesday, January 29, 2014

  Actual Average (KLTS) Record (KLTS)
Temperature  
Mean Temperature 30 °F -  
Max Temperature 48 °F 50 °F 79 °F (2016)
Min Temperature 12 °F 27 °F 8 °F (2014)
Degree Days  
Heating Degree Days 35    
Moisture  
Dew Point 5 °F    
Average Humidity 40    
Maximum Humidity 71    
Minimum Humidity 15    
Precipitation  
Precipitation 0.00 in - - ()
Sea Level Pressure  
Sea Level Pressure 30.21 in    
Wind  
Wind Speed 11 mph (SSW)    
Max Wind Speed 23 mph    
Max Gust Speed 30 mph    
Visibility 10 miles    
Events      
Averages and records for this station are not official NWS values.
T = Trace of Precipitation, MM = Missing Value Source: NWS Daily Summary

Daily Weather History Graph

Daily Weather History Graph

Search for Another Location

Airport or City:

Trip Planner

Search our weather history database for the weather conditions in past years. The results will help you decide how hot, cold, wet, or windy it might be!

Date:

Astronomy

Jan. 29, 2014 Rise Set
Actual Time 7:35 AM CST 6:02 PM CST
Civil Twilight 7:09 AM CST 6:29 PM CST
Nautical Twilight 6:38 AM CST 6:59 PM CST
Astronomical Twilight 6:09 AM CST 7:29 PM CST
Moon 6:13 AM CST (1/29) 5:04 PM CST (1/29)
Length of Visible Light 11h 20m
Length of Day
10h 27m
Waning Crescent, 2% of the Moon is Illuminated
Jan 29
Waning Crescent
Jan 30
New
Feb 6
First Quarter
Feb 14
Full
Feb 22
Last Quarter

Hourly Weather History & Observations

Time (CST) Temp. Windchill Dew Point Humidity Pressure Visibility Wind Dir Wind Speed Gust Speed Precip Events Conditions
12:53 AM 15.1 °F 3.3 °F 1.9 °F 56% 30.39 in 10.0 mi WSW 9.2 mph - N/A   Clear
1:53 AM 16.0 °F 5.3 °F 3.9 °F 59% 30.37 in 10.0 mi SW 8.1 mph - N/A   Clear
2:53 AM 15.1 °F 4.2 °F 5.0 °F 64% 30.35 in 10.0 mi SSW 8.1 mph - N/A   Clear
3:53 AM 14.0 °F 5.1 °F 3.9 °F 64% 30.34 in 10.0 mi SSW 5.8 mph - N/A   Clear
4:53 AM 14.0 °F 5.1 °F 3.9 °F 64% 30.33 in 10.0 mi SW 5.8 mph - N/A   Clear
5:53 AM 14.0 °F 3.9 °F 5.0 °F 67% 30.33 in 10.0 mi SW 6.9 mph - N/A   Clear
6:53 AM 12.9 °F 2.6 °F 5.0 °F 71% 30.35 in 10.0 mi SW 6.9 mph - N/A   Clear
7:53 AM 14.0 °F 5.1 °F 5.0 °F 67% 30.33 in 10.0 mi SW 5.8 mph - N/A   Clear
8:53 AM 19.9 °F 9.3 °F 7.0 °F 57% 30.33 in 10.0 mi SW 9.2 mph - N/A   Clear
9:53 AM 30.0 °F 20.5 °F 8.1 °F 40% 30.34 in 10.0 mi SSW 11.5 mph - N/A   Clear
10:53 AM 36.0 °F 28.5 °F 6.1 °F 29% 30.32 in 10.0 mi SW 10.4 mph - N/A   Clear
11:53 AM 43.0 °F 35.4 °F 3.9 °F 20% 30.28 in 10.0 mi SSW 16.1 mph 25.3 mph N/A   Clear
12:53 PM 45.0 °F 37.6 °F 1.9 °F 17% 30.24 in 10.0 mi South 17.3 mph 26.5 mph N/A   Clear
1:53 PM 48.0 °F - 3.0 °F 16% 30.18 in 10.0 mi SSW 19.6 mph 26.5 mph N/A   Clear
2:53 PM 48.9 °F - 1.9 °F 15% 30.14 in 10.0 mi SSW 21.9 mph - N/A   Clear
3:53 PM 48.9 °F - 1.9 °F 15% 30.11 in 10.0 mi South 20.7 mph 29.9 mph N/A   Clear
4:53 PM 46.9 °F - 3.0 °F 16% 30.09 in 10.0 mi South 23.0 mph - N/A   Clear
5:53 PM 43.0 °F 35.4 °F 3.0 °F 19% 30.10 in 10.0 mi South 16.1 mph - N/A   Clear
6:53 PM 36.0 °F 27.5 °F 1.9 °F 24% 30.08 in 10.0 mi SSE 12.7 mph - N/A   Clear
7:53 PM 35.1 °F 26.9 °F 3.9 °F 27% 30.08 in 10.0 mi SSE 11.5 mph - N/A   Clear
8:53 PM 34.0 °F 25.0 °F 5.0 °F 30% 30.06 in 10.0 mi SSE 12.7 mph - N/A   Clear
9:53 PM 33.1 °F 23.0 °F 7.0 °F 34% 30.03 in 10.0 mi South 15.0 mph - N/A   Clear
10:53 PM 30.9 °F 20.7 °F 9.0 °F 40% 30.01 in 10.0 mi SSE 13.8 mph - N/A   Clear
11:53 PM 28.9 °F 18.2 °F 9.0 °F 43% 29.97 in 10.0 mi SSE 13.8 mph - N/A   Clear